Погода в Большекызылбаеве

Россия / Республика Башкортостан     55°57′52″N   58°04′31″E
темп.,
°C
ветер,
м/с
пор.,
м/с
влажн.,
%
обл.,
%
осадки,
мм/ч
давл.,
гПа
погр.,
м
8 августа, пн
пн823:00+20ссз117197 0.1 101911
02:00+20сз117035 0.0 101911
05:00+17сз117990 0.0 102011
08:00+21ссв116937 0.0 1020111
11:00+25св225565 0.0 1020622
14:00+28св334541 0.0 10191975
17:00+27всв344499 0.0 10181410
20:00+22зсз116947 0.1 101912
9 августа, вт
вт923:00+19сз117865 0.1 101911
02:00+18зсз118368 0.0 101911
05:00+16з008874 0.3 101911
08:00+20всв017612 0.0 1020136
11:00+25св22575 0.0 1019665
14:00+27ссв34487 0.0 10181463
17:00+28ссв12456 0.0 10171242
20:00+19юв268782 1.1 1019201
10 августа, ср
ср1023:00+17ссв118910 2.8 101911
02:00+16зсз008935 0.3 101911
05:00+16ююз119066 0.3 101911
08:00+18в1184100 0.0 101983
11:00+23вюв116482 0.0 1019461
14:00+26в1152100 0.0 10181013
17:00+26всв2153100 0.0 1017945
20:00+22в007258 0.0 101711
11 августа, чт
чт1123:00+18юз11852 0.3 101711
02:00+17зюз21875 0.0 101711
05:00+16зюз11915 0.0 101611
08:00+19ююз238232 0.0 1016178
11:00+24зюз4662100 0.3 1015839
14:00+24з5761100 1.3 10151187
17:00+20зсз5886100 5.6 1014681
20:00+18з48880 0.9 1014399
12 августа, пт
пт1223:00+14зсз4109512 0.9 1015400
02:00+13зсз51095100 0.1 1016553
05:00+13зсз5108999 0.1 1016930
08:00+13зсз5108311 0.0 1017533
11:00+16зсз5106696 0.0 1017785
14:00+19зсз595196 0.0 10161626
17:00+18зсз51059100 0.0 1015716
20:00+17зюз496634 0.1 1014319